Regional Weather Roundup
Issued by NWS Upton, NY

Current Version | Previous Version | Graphics & Text | Print | Product List | Glossary Off
Versions: 1 2 3 4 5 6 7 8 9 10 11 12 13 14 15 16 17 18 19 20 21 22 23 24 25 26 27 28 29 30 31 32 33 34 35 36 37 38 39 40 41 42 43 44 45 46 47 48 49 50

000
ASUS41 KOKX 250807
RWROKX

REGIONAL WEATHER ROUNDUP
NATIONAL WEATHER SERVICE NEW YORK NY
400 AM EDT SAT APR 25 2015

NOTE: "FAIR" INDICATES FEW OR NO CLOUDS BELOW 12,000 FEET WITH NO
SIGNIFICANT WEATHER AND/OR OBSTRUCTIONS TO VISIBILITY.

NYZ071-072-176-178-NJZ106-104-250900-
NEW YORK CITY METRO AREA


CITY           SKY/WX    TMP DP  RH WIND       PRES   REMARKS
CENTRAL PARK   CLEAR     39  21  48 W8G16     29.93R WCI  33
LAGUARDIA APRT CLEAR     40  22  48 W13       29.90S WCI  32
KENNEDY INTL   CLEAR     39  21  48 W9        29.92S WCI  33
NEWARK/LIBERTY CLEAR     37  22  54 SW9       29.92S WCI  30
BRNX BOT. GARD   N/A     37  23  56 W16       29.90R WCI  28
TETERBORO      CLEAR     36  21  54 W6        29.90S WCI  31
$$

NYZ177-179-078>081-250900-
LONG ISLAND NEW YORK

CITY           SKY/WX    TMP DP  RH WIND       PRES   REMARKS
FARMINGDALE    CLEAR     37  22  54 W7        29.89S WCI  32
ISLIP          CLEAR     33  22  63 SW8       29.86F WCI  26
SHIRLEY        CLEAR     34  22  61 W5        29.88S WCI  30
WESTHAMPTON    CLEAR     28  17  63 W3        29.88S
MONTAUK POINT    N/A     39  23  52 W8G20     29.85S WCI  33
$$

NYZ052-065-067-250900-
HUDSON VALLEY

CITY           SKY/WX    TMP DP  RH WIND       PRES   REMARKS
WHITE PLAINS   CLEAR     36  21  54 W10G21    29.86S WCI  28
NEWBURGH       CLEAR     32  25  74 W10       29.97R WCI  24
MONTGOMERY     CLEAR     32  21  64 W10       29.87S WCI  24
POUGHKEEPSIE   CLEAR     31  21  66 S3        29.87S
ALBANY         CLEAR     32  21  64 NW5       29.86F WCI  27
$$

NJZ001-105-106-008-010-013-015-019>022-104-250900-
NEW JERSEY

CITY           SKY/WX    TMP DP  RH WIND       PRES   REMARKS
NEWARK/LIBERTY CLEAR     37  22  54 SW9       29.92S WCI  30
TETERBORO      CLEAR     36  21  54 W6        29.90S WCI  31
CALDWELL       CLEAR     36  20  52 SW5       29.92R WCI  32
MORRISTOWN     CLEAR     36  23  60 W6        29.92S WCI  31
SOMERVILLE     CLEAR     29  22  75 CALM      29.92S
SUSSEX         CLEAR     30  22  72 W3        29.90F
ANDOVER          N/A     29  24  82 CALM      29.91S
TRENTON        CLEAR     35  22  58 W6        29.94S WCI  30
MILLVILLE      CLEAR     28  24  85 W3        29.96F
ATLANTIC CITY  CLEAR     31  23  72 SW3       29.96S
WRIGHTSTOWN    CLEAR     31  23  73 SW2       29.92S
TOMS RIVER     CLEAR     27  23  86 CALM      29.93S
BELMAR         CLEAR     36  19  51 W6        29.93S WCI  31
$$

PAZ047>061-062-071-250900-
EASTERN PENNSYLVANIA

CITY           SKY/WX    TMP DP  RH WIND       PRES   REMARKS
PHILADELPHIA   CLEAR     41  21  44 W5        29.97F
ALLENTOWN      CLEAR     32  21  64 SW5       29.94S WCI  27
SCRANTON       CLEAR     33  22  63 NW5       29.92R WCI  29
$$

CTZ002-004>006-009-010-012-RIZ004-006-007-MAZ004-011-015-250900-
SOUTHERN NEW ENGLAND
 IN CT

CITY           SKY/WX    TMP DP  RH WIND       PRES   REMARKS
BRADLEY INTL   CLEAR     36  21  54 N7        29.81F WCI  30
HARTFORD       CLEAR     36  21  54 VRB6      29.83F WCI  31
DANBURY        CLEAR     28  19  69 W5        29.87S WCI  23
WTRBRY/OXFORD  CLEAR     30  16  55 CALM      29.85S
BRIDGEPORT     CLEAR     34  23  64 W3        29.88R
MERIDEN        CLEAR     34  21  59 W8        29.84F WCI  27
NEW HAVEN      CLEAR     35  22  58 W3        29.86S
CHESTER        FAIR      32  21  64 CALM      29.82F
GROTON         CLEAR     34  21  59 W3        29.82F
WILLIMANTIC    CLEAR     33  21  61 SW3       29.81S

 IN RI

CITY           SKY/WX    TMP DP  RH WIND       PRES   REMARKS
PROVIDENCE     CLEAR     34  21  59 W7        29.80F WCI  28
BLOCK ISLAND   CLEAR     37  21  52 NW10G17   29.82S WCI  30
WESTERLY       CLEAR     34  22  61 W5        29.83S WCI  30

 IN MA

CITY           SKY/WX    TMP DP  RH WIND       PRES   REMARKS
BOSTON         CLEAR     38  22  52 W9        29.76F WCI  31
WORCESTER      CLEAR     31  20  63 NW9       29.74S WCI  23
WESTFIELD      CLEAR     34  21  59 NW7       29.80F WCI  28
PROVINCETOWN   MOCLDY   N/A N/A N/A NW16      29.75S
NANTUCKET      CLEAR     40  24  53 W12       29.77S WCI  33
$$

ANZ330-335-338-340-345-350-353-355-250900-
COASTAL MARINE OBSERVATIONS


STATION/POSITION TIME  SKY/WX   TEMP    WIND        PRES    VSBY  WAVE
                                AIR SEA DIR/SP/G                  HT/PER
                 (UTC)          (F)     (DEG/KT/KT) (MB)    (MI)  (FT/S)
NY HARB ENTRANCE 0750            41 44  300/ 16/ 19 1012.5          2/ 4
4S FIRE IS       0703               43                N/A           2/13
20S FIRE ISLAND  0750            40 43  310/ 16/ 17 1012.3          3/ 5
23SW MTP         NOT AVBL
HUDSON CANYON    NOT AVBL
EXECUTION ROCKS  NOT AVBL
WESTERN LI SOUND NOT AVBL
CENTRAL LI SOUND NOT AVBL
EASTERN LI SOUND 0700            39     280/ 14/ 19   N/A
ROBBINS REEF     0700            39     290/ 12/ 14 1011.9
$$


>>>>>>>>>>>>>>>>>>>>>>>>>>>> KEY <<<<<<<<<<<<<<<<<<<<<<<<<<<
>                                                          <
>     SKY/WX - SKY CONDITION/PRESENT WEATHER               <
>     TMP    - TEMPERATURE IN FAHRENHEIT                   <
>     DP     - DEWPOINT IN FAHRENHEIT                      <
>     RH     - RELATIVE HUMIDITY IN PERCENT                <
>     WIND   - DIRECTION AND SPEED IN MPH                  <
>     PRES   - MEAN SEA LEVEL PRESSURE IN INCHES OF HG     <
>     WCI    - WIND CHILL INDEX                            <
>     VSB    - VISIBILITY IN MILES                         <
>     HX     - HEAT INDEX                                  <
>     TC     - TEMPERATURE IN CELSIUS                      <
>     VRB    - VARIABLE WIND DIRECTION                     <
>                                                          <
>>>>>>>>>>>>>>>>>>>>>>>>>>>> KEY <<<<<<<<<<<<<<<<<<<<<<<<<<<





USA.gov is the U.S. government's official web portal to all federal, state and local government web resources and services.